Weather History for KMRJ - October, 2013

Change the Weather History Date:

Tuesday, October 8, 2013

  Actual Average (KLNR) Record (KLNR)
Temperature  
Mean Temperature 60 °F -  
Max Temperature 75 °F 62 °F 82 °F (2011)
Min Temperature 46 °F 39 °F 27 °F (2012)
Degree Days  
Heating Degree Days 4    
Growing Degree Days 10 (Base 50)    
Moisture  
Dew Point 41 °F    
Average Humidity 54    
Maximum Humidity 81    
Minimum Humidity 25    
Precipitation  
Precipitation 0.00 in - - ()
Sea Level Pressure  
Sea Level Pressure 30.10 in    
Wind  
Wind Speed 7 mph (SSE)    
Max Wind Speed 20 mph    
Max Gust Speed 25 mph    
Visibility 10 miles    
Events      
Averages and records for this station are not official NWS values.
T = Trace of Precipitation, MM = Missing Value Source: NWS Daily Summary

Daily Weather History Graph

Daily Weather History Graph

Search for Another Location

Airport or City:

Trip Planner

Search our weather history database for the weather conditions in past years. The results will help you decide how hot, cold, wet, or windy it might be!

Date:

Astronomy

Oct. 08, 2013 Rise Set
Actual Time 7:06 AM CDT 6:29 PM CDT
Civil Twilight 6:38 AM CDT 6:57 PM CDT
Nautical Twilight 6:05 AM CDT 7:30 PM CDT
Astronomical Twilight 5:32 AM CDT 8:03 PM CDT
Moon 11:06 AM CDT (10/8) 9:00 PM CDT (10/8)
Length of Visible Light 12h 19m
Length of Day
11h 23m
Waxing Crescent, 16% of the Moon is Illuminated
Oct 8
Waxing Crescent
Oct 11
First Quarter
Oct 18
Full
Oct 26
Last Quarter
Nov 3
New

Hourly Weather History & Observations

Time (CDT) Temp. Windchill Dew Point Humidity Pressure Visibility Wind Dir Wind Speed Gust Speed Precip Events Conditions
12:15 AM 51.8 °F - 41.0 °F 67% 30.07 in 10.0 mi East 4.6 mph - N/A   Clear
12:35 AM 51.8 °F - 41.0 °F 67% 30.07 in 10.0 mi East 5.8 mph - N/A   Clear
12:55 AM 51.8 °F - 41.0 °F 67% 30.08 in 10.0 mi SSW 5.8 mph - N/A   Clear
1:15 AM 46.4 °F 44.3 °F 41.0 °F 81% 30.08 in 10.0 mi SSE 4.6 mph - N/A   Clear
1:35 AM 48.2 °F - 41.0 °F 76% 30.09 in 10.0 mi SE 4.6 mph - N/A   Clear
1:55 AM 46.4 °F 44.3 °F 41.0 °F 81% 30.09 in 10.0 mi SE 4.6 mph - N/A   Clear
2:15 AM 46.4 °F 44.3 °F 41.0 °F 81% 30.09 in 10.0 mi SE 4.6 mph - N/A   Clear
2:35 AM 48.2 °F - 41.0 °F 76% 30.09 in 10.0 mi SE 4.6 mph - N/A   Clear
2:55 AM 48.2 °F - 41.0 °F 76% 30.09 in 10.0 mi SE 5.8 mph - N/A   Clear
3:15 AM 46.4 °F 43.5 °F 41.0 °F 81% 30.09 in 10.0 mi SE 5.8 mph - N/A   Clear
3:35 AM 48.2 °F - 41.0 °F 76% 30.09 in 10.0 mi SE 4.6 mph - N/A   Clear
3:55 AM 48.2 °F - 41.0 °F 76% 30.10 in 10.0 mi SE 5.8 mph - N/A   Clear
4:15 AM 48.2 °F - 41.0 °F 76% 30.10 in 10.0 mi SE 5.8 mph - N/A   Clear
4:35 AM 48.2 °F - 41.0 °F 76% 30.10 in 10.0 mi SE 5.8 mph - N/A   Clear
4:55 AM 48.2 °F - 41.0 °F 76% 30.10 in 10.0 mi SE 5.8 mph - N/A   Clear
5:15 AM 46.4 °F 43.5 °F 41.0 °F 81% 30.10 in 10.0 mi SE 5.8 mph - N/A   Clear
5:35 AM 46.4 °F 42.9 °F 41.0 °F 81% 30.10 in 10.0 mi SE 6.9 mph - N/A   Clear
5:55 AM 46.4 °F 42.9 °F 41.0 °F 81% 30.10 in 10.0 mi SE 6.9 mph - N/A   Clear
6:15 AM 48.2 °F - 41.0 °F 76% 30.11 in 10.0 mi SE 8.1 mph - N/A   Clear
6:35 AM 48.2 °F - 41.0 °F 76% 30.11 in 10.0 mi SE 6.9 mph - N/A   Clear
6:55 AM 48.2 °F - 41.0 °F 76% 30.11 in 10.0 mi SSE 8.1 mph - N/A   Clear
7:15 AM 48.2 °F - 41.0 °F 76% 30.12 in 10.0 mi SSE 6.9 mph - N/A   Clear
7:35 AM 48.2 °F - 41.0 °F 76% 30.12 in 10.0 mi SE 8.1 mph - N/A   Clear
7:55 AM 50.0 °F - 41.0 °F 71% 30.12 in 10.0 mi SE 6.9 mph - N/A   Clear
8:15 AM 51.8 °F - 42.8 °F 71% 30.13 in 10.0 mi SE 5.8 mph - N/A   Clear
8:35 AM 53.6 °F - 42.8 °F 67% 30.13 in 10.0 mi SSE 6.9 mph - N/A   Clear
8:55 AM 53.6 °F - 44.6 °F 72% 30.13 in 10.0 mi SSE 6.9 mph - N/A   Clear
9:15 AM 55.4 °F - 44.6 °F 67% 30.13 in 10.0 mi SSE 6.9 mph - N/A   Clear
9:35 AM 55.4 °F - 44.6 °F 67% 30.13 in 10.0 mi SSE 9.2 mph - N/A   Clear
9:55 AM 59.0 °F - 46.4 °F 63% 30.13 in 10.0 mi South 6.9 mph - N/A   Clear
10:15 AM 60.8 °F - 46.4 °F 59% 30.13 in 10.0 mi South 6.9 mph - N/A   Clear
10:35 AM 62.6 °F - 48.2 °F 59% 30.13 in 10.0 mi South 8.1 mph - N/A   Clear
10:55 AM 64.4 °F - 46.4 °F 52% 30.12 in 10.0 mi South 9.2 mph - N/A   Clear
11:15 AM 68.0 °F - 44.6 °F 43% 30.12 in 10.0 mi South 8.1 mph - N/A   Clear
11:35 AM 69.8 °F - 42.8 °F 38% 30.12 in 10.0 mi South 8.1 mph - N/A   Clear
11:55 AM 71.6 °F - 44.6 °F 38% 30.12 in 10.0 mi South 9.2 mph - N/A   Clear
12:15 PM 71.6 °F - 42.8 °F 35% 30.12 in 10.0 mi South 10.4 mph - N/A   Clear
12:35 PM 71.6 °F - 41.0 °F 33% 30.12 in 10.0 mi South 15.0 mph 19.6 mph N/A   Clear
12:55 PM 73.4 °F - 37.4 °F 27% 30.11 in 10.0 mi South 18.4 mph 25.3 mph N/A   Clear
1:15 PM 73.4 °F - 37.4 °F 27% 30.11 in 10.0 mi South 19.6 mph 24.2 mph N/A   Clear
1:35 PM 73.4 °F - 37.4 °F 27% 30.10 in 10.0 mi SSW 16.1 mph 20.7 mph N/A   Clear
1:55 PM 73.4 °F - 39.2 °F 29% 30.09 in 10.0 mi South 15.0 mph 23.0 mph N/A   Clear
2:15 PM 73.4 °F - 41.0 °F 31% 30.09 in 10.0 mi South 16.1 mph - N/A   Clear
2:35 PM 73.4 °F - 39.2 °F 29% 30.08 in 10.0 mi South 12.7 mph - N/A   Clear
2:55 PM 75.2 °F - 39.2 °F 27% 30.08 in 10.0 mi South 15.0 mph 19.6 mph N/A   Clear
3:15 PM 75.2 °F - 37.4 °F 25% 30.08 in 10.0 mi South 10.4 mph 18.4 mph N/A   Clear
3:35 PM 75.2 °F - 37.4 °F 25% 30.08 in 10.0 mi South 12.7 mph 17.3 mph N/A   Clear
3:55 PM 75.2 °F - 37.4 °F 25% 30.08 in 10.0 mi South 12.7 mph 19.6 mph N/A   Clear
4:15 PM 75.2 °F - 37.4 °F 25% 30.08 in 10.0 mi South 12.7 mph - N/A   Clear
4:35 PM 75.2 °F - 37.4 °F 25% 30.07 in 10.0 mi South 10.4 mph 17.3 mph N/A   Clear
4:55 PM 73.4 °F - 37.4 °F 27% 30.07 in 10.0 mi South 11.5 mph 16.1 mph N/A   Clear
5:15 PM 71.6 °F - 37.4 °F 29% 30.07 in 10.0 mi South 9.2 mph - N/A   Clear
5:35 PM 71.6 °F - 37.4 °F 29% 30.07 in 10.0 mi South 10.4 mph 17.3 mph N/A   Clear
5:55 PM 71.6 °F - 37.4 °F 29% 30.07 in 10.0 mi South 8.1 mph - N/A   Clear
6:15 PM 69.8 °F - 37.4 °F 31% 30.07 in 10.0 mi South 6.9 mph - N/A   Clear
6:35 PM 68.0 °F - 39.2 °F 35% 30.07 in 10.0 mi SSE 5.8 mph - N/A   Clear
6:55 PM 64.4 °F - 41.0 °F 42% 30.08 in 7.0 mi SSE 4.6 mph - N/A   Clear
7:15 PM 64.4 °F - 41.0 °F 42% 30.08 in 10.0 mi SSE 5.8 mph - N/A   Clear
7:35 PM 64.4 °F - 41.0 °F 42% 30.08 in 10.0 mi SSE 8.1 mph - N/A   Clear
7:55 PM 64.4 °F - 41.0 °F 42% 30.08 in 10.0 mi SSE 8.1 mph - N/A   Clear
8:15 PM 62.6 °F - 41.0 °F 45% 30.09 in 10.0 mi SSE 9.2 mph - N/A   Clear
8:35 PM 62.6 °F - 41.0 °F 45% 30.09 in 10.0 mi SSE 9.2 mph - N/A   Clear
8:55 PM 62.6 °F - 42.8 °F 48% 30.09 in 10.0 mi SSE 9.2 mph - N/A   Clear
9:15 PM 60.8 °F - 42.8 °F 52% 30.10 in 10.0 mi SSE 9.2 mph - N/A   Clear
9:35 PM 60.8 °F - 42.8 °F 52% 30.10 in 10.0 mi SSE 9.2 mph - N/A   Clear
9:55 PM 60.8 °F - 42.8 °F 52% 30.10 in 10.0 mi SSE 9.2 mph - N/A   Clear
10:15 PM 59.0 °F - 42.8 °F 55% 30.10 in 10.0 mi SSE 10.4 mph - N/A   Clear
10:35 PM 59.0 °F - 42.8 °F 55% 30.11 in 10.0 mi SSE 8.1 mph - N/A   Clear
10:55 PM 59.0 °F - 42.8 °F 55% 30.11 in 10.0 mi SSE 6.9 mph - N/A   Clear
11:15 PM 57.2 °F - 42.8 °F 59% 30.11 in 10.0 mi South 5.8 mph - N/A   Clear
11:35 PM 59.0 °F - 42.8 °F 55% 30.11 in 10.0 mi South 5.8 mph - N/A   Clear
11:55 PM 57.2 °F - 42.8 °F 59% 30.11 in 10.0 mi South 5.8 mph - N/A   Clear